Weather History for Kremmling, CO

Change the Weather History Date:

Wednesday, January 9, 2013

  Actual Average (KEGE) Record (KEGE)
Temperature  
Mean Temperature 0 °F -  
Max Temperature 12 °F 31 °F 53 °F (1990)
Min Temperature -13 °F 3 °F -21 °F (1967)
Degree Days  
Heating Degree Days 66    
Moisture  
Dew Point -9 °F    
Average Humidity 74    
Maximum Humidity 85    
Minimum Humidity 65    
Precipitation  
Precipitation 0.00 in - - ()
Sea Level Pressure  
Sea Level Pressure 30.38 in    
Wind  
Wind Speed 1 mph (ESE)    
Max Wind Speed 5 mph    
Max Gust Speed -    
Averages and records for this station are not official NWS values.
T = Trace of Precipitation, MM = Missing Value Source: NWS Daily Summary

Daily Weather History Graph

Daily Weather History Graph

Search for Another Location

Airport:

Trip Planner

Search our weather history database for the weather conditions in past years. The results will help you decide how hot, cold, wet, or windy it might be!

Date:

Astronomy

Jan. 09, 2013 Rise Set
Actual Time 7:27 AM MST 4:58 PM MST
Civil Twilight 6:57 AM MST 5:28 PM MST
Nautical Twilight 6:23 AM MST 6:02 PM MST
Astronomical Twilight 5:50 AM MST 6:35 PM MST
Moon 5:09 AM MST (1/9) 3:03 PM MST (1/9)
Length of Visible Light 10h 31m
Length of Day
9h 31m
Waning Crescent, 6% of the Moon is Illuminated
Jan 9
Waning Crescent
Jan 11
New
Jan 18
First Quarter
Jan 26
Full
Feb 3
Last Quarter

Hourly Weather History & Observations

Time (MST) Temp. Windchill Dew Point Humidity Pressure Visibility Wind Dir Wind Speed Gust Speed Precip Events Conditions
12:16 AM -4.0 °F -12.4 °F -9.4 °F 78% 30.43 in - WSW 3.5 mph - N/A   Clear
12:36 AM -4.0 °F - -9.4 °F 78% 30.44 in - Calm Calm - N/A   Clear
12:56 AM -4.0 °F - -9.4 °F 78% 30.45 in - Calm Calm - N/A   Clear
1:16 AM -5.8 °F - -11.2 °F 77% 30.45 in - Calm Calm - N/A   Clear
1:36 AM -5.8 °F -14.5 °F -11.2 °F 77% 30.46 in - South 3.5 mph - N/A   Clear
1:56 AM -5.8 °F -14.5 °F -13.0 °F 71% 30.47 in - East 3.5 mph - N/A   Clear
2:16 AM -5.8 °F -16.7 °F -11.2 °F 77% 30.47 in - NNE 4.6 mph - N/A   Clear
2:36 AM -7.6 °F -16.5 °F -14.8 °F 71% 30.47 in - SSE 3.5 mph - N/A Snow Light Snow
2:55 AM -7.6 °F -16.5 °F -14.8 °F 71% 30.47 in - East 3.5 mph - N/A   Clear
3:15 AM -7.6 °F - -14.8 °F 71% 30.47 in - Calm Calm - N/A   Clear
3:36 AM -7.6 °F - -14.8 °F 71% 30.47 in - Calm Calm - N/A   Clear
3:56 AM -7.6 °F - -14.8 °F 71% 30.46 in - Calm Calm - N/A   Clear
4:16 AM -9.4 °F - -16.6 °F 71% 30.47 in - Calm Calm - N/A   Clear
4:36 AM -9.4 °F - -14.8 °F 77% 30.47 in - Calm Calm - N/A   Clear
5:16 AM -9.4 °F - -16.6 °F 71% 30.47 in - Calm Calm - N/A   Clear
5:36 AM -9.4 °F - -16.6 °F 71% 30.46 in - Calm Calm - N/A   Clear
5:56 AM -9.4 °F -20.9 °F -16.6 °F 71% 30.46 in - SE 4.6 mph - N/A   Scattered Clouds
6:16 AM -9.4 °F - -16.6 °F 71% 30.47 in - Calm Calm - N/A   Mostly Cloudy
6:36 AM -9.4 °F - -18.4 °F 65% 30.47 in - Calm Calm - N/A   Overcast
6:56 AM -9.4 °F - -16.6 °F 71% 30.47 in - Calm Calm - N/A   Scattered Clouds
7:16 AM -13.0 °F - -18.4 °F 77% 30.48 in - Calm Calm - N/A   Scattered Clouds
7:36 AM -9.4 °F - -18.4 °F 65% 30.49 in - Calm Calm - N/A   Scattered Clouds
7:56 AM -9.4 °F - -16.6 °F 71% 30.49 in - Calm Calm - N/A   Mostly Cloudy
8:16 AM -9.4 °F - -16.6 °F 71% 30.50 in - Calm Calm - N/A   Scattered Clouds
8:35 AM -9.4 °F - -16.6 °F 71% 30.49 in - Calm Calm - N/A   Clear
8:55 AM -7.6 °F -18.8 °F -14.8 °F 71% 30.48 in - East 4.6 mph - N/A   Scattered Clouds
9:15 AM -5.8 °F - -13.0 °F 71% 30.49 in - Calm Calm - N/A   Clear
9:36 AM -7.6 °F - -14.8 °F 71% 30.49 in - Calm Calm - N/A Snow Light Snow
9:56 AM -4.0 °F - -11.2 °F 71% 30.48 in - Calm Calm - N/A   Scattered Clouds
10:16 AM -2.2 °F - -9.4 °F 71% 30.48 in - Calm Calm - N/A   Clear
10:36 AM -0.4 °F - -7.6 °F 72% 30.47 in - Calm Calm - N/A   Clear
10:56 AM 1.4 °F - -5.8 °F 72% 30.46 in - Calm Calm - N/A   Clear
11:16 AM 1.4 °F - -5.8 °F 72% 30.45 in - Calm Calm - N/A   Clear
11:36 AM 3.2 °F - -4.0 °F 72% 30.43 in - Calm Calm - N/A   Clear
11:56 AM 3.2 °F - -5.8 °F 66% 30.42 in - Calm Calm - N/A   Clear
12:16 PM - - - N/A% - - North - - N/A   Unknown
12:36 PM - - - N/A% - - North - - N/A   Unknown
12:56 PM - - - N/A% - - North - - N/A   Unknown
1:16 PM - - - N/A% - - North - - N/A   Unknown
1:36 PM - - - N/A% - - North - - N/A   Unknown
1:56 PM - - - N/A% 30.35 in - Calm Calm - N/A   Unknown
2:16 PM 12.2 °F - 3.2 °F 67% 30.35 in - Calm Calm - N/A   Clear
2:36 PM 12.2 °F - 3.2 °F 67% 30.35 in - Calm Calm - N/A   Clear
2:56 PM 12.2 °F - 3.2 °F 67% 30.34 in - Calm Calm - N/A   Clear
3:16 PM 12.2 °F - 3.2 °F 67% 30.33 in - Calm Calm - N/A   Clear
3:36 PM 12.2 °F - 3.2 °F 67% 30.32 in - Calm Calm - N/A   Clear
3:56 PM 12.2 °F - 3.2 °F 67% 30.32 in - Calm Calm - N/A   Clear
4:16 PM 10.4 °F - 3.2 °F 73% 30.32 in - Calm Calm - N/A   Clear
4:36 PM 10.4 °F - 3.2 °F 73% 30.32 in - Calm Calm - N/A   Clear
4:56 PM 8.6 °F - 3.2 °F 79% 30.31 in - Calm Calm - N/A   Clear
5:16 PM 8.6 °F - 1.4 °F 73% 30.31 in - Calm Calm - N/A   Clear
5:36 PM 3.2 °F - -0.4 °F 85% 30.30 in - Calm Calm - N/A   Unknown
5:56 PM 3.2 °F - -4.0 °F 72% 30.30 in - Calm Calm - N/A   Clear
6:16 PM -0.4 °F - -4.0 °F 85% 30.30 in - Calm Calm - N/A   Unknown
6:36 PM 1.4 °F - -2.2 °F 85% 30.30 in - Calm Calm - N/A   Unknown
6:56 PM -0.4 °F - -4.0 °F 85% 30.29 in - Calm Calm - N/A   Unknown
7:16 PM -2.2 °F - -7.6 °F 78% 30.29 in - Calm Calm - N/A   Clear
7:36 PM -4.0 °F - -7.6 °F 85% 30.28 in - Calm Calm - N/A   Clear
7:56 PM -4.0 °F - -7.6 °F 85% 30.28 in - Calm Calm - N/A   Unknown
8:16 PM -2.2 °F - -7.6 °F 78% 30.28 in - Calm Calm - N/A   Clear
8:36 PM -4.0 °F -12.4 °F -9.4 °F 78% 30.27 in - NNE 3.5 mph - N/A   Clear
8:56 PM -4.0 °F - -7.6 °F 85% 30.26 in - Calm Calm - N/A   Unknown
9:16 PM -4.0 °F - -9.4 °F 78% 30.26 in - Calm Calm - N/A   Clear
9:35 PM -5.8 °F - -11.2 °F 77% 30.26 in - Calm Calm - N/A   Clear
9:56 PM -5.8 °F - -9.4 °F 84% 30.25 in - Calm Calm - N/A   Clear
10:16 PM -7.6 °F - -13.0 °F 77% 30.25 in - Calm Calm - N/A   Scattered Clouds
10:35 PM -7.6 °F - -13.0 °F 77% 30.25 in - Calm Calm - N/A Snow Light Snow
10:56 PM -9.4 °F - -14.8 °F 77% 30.24 in - Calm Calm - N/A Snow Light Snow
11:16 PM -9.4 °F - -14.8 °F 77% 30.23 in - Calm Calm - N/A   Mostly Cloudy
11:36 PM -9.4 °F - -14.8 °F 77% 30.22 in - Calm Calm - N/A   Overcast
11:56 PM -9.4 °F - -14.8 °F 77% 30.20 in - Calm Calm - N/A   Overcast